Weather reports worldwide

Advertisment
Shoeburyness Landwick, United Kingdom (3693): temperature & dewpoint: 15.02.2018 19:00:00 - 21.02.2018 19:00:00 (GMT)Shoeburyness Landwick, United Kingdom (3693): temperature -20cm & temperature -100cm: 15.02.2018 19:00:00 - 21.02.2018 19:00:00 (GMT)Shoeburyness Landwick, United Kingdom (3693): wind speed & gusts: 15.02.2018 19:00:00 - 21.02.2018 19:00:00 (GMT)Shoeburyness Landwick, United Kingdom (3693): wind direction: 15.02.2018 19:00:00 - 21.02.2018 19:00:00 (GMT)Shoeburyness Landwick, United Kingdom (3693): reduced air pressure: 15.02.2018 19:00:00 - 21.02.2018 19:00:00 (GMT)Shoeburyness Landwick, United Kingdom (3693): visibility: 15.02.2018 19:00:00 - 21.02.2018 19:00:00 (GMT)Shoeburyness Landwick, United Kingdom (3693): sunshine duration: 15.02.2018 19:00:00 - 21.02.2018 19:00:00 (GMT)Shoeburyness Landwick, United Kingdom (3693): precipitation: 15.02.2018 19:00:00 - 21.02.2018 19:00:00 (GMT)
Date & Time tt [°C] td [°C] tt -20cm [°C] tt -100cm [°C] ff [km/h] ff [kn] fx [km/h] fx [kn] dd ppp [hPa] vv [km] sd [min] rr [mm]
21.02.2018 19:00:00 - - - - - - - - - - - - 0,0
21.02.2018 18:00:00 4,6 2,7 - - 9 5 - - NE 1025,9 5 0 0,0
21.02.2018 17:00:00 4,8 2,9 - - 9 5 - - NE 1025,7 6 0 0,0
21.02.2018 16:00:00 5,2 2,2 - - 13 7 - - ENE 1025,8 8 0 0,0
21.02.2018 15:00:00 5,8 2,6 - - 13 7 - - ENE 1026,0 8 0 0,0
21.02.2018 14:00:00 6,1 2,4 - - 15 8 - - NE 1026,5 8 0 0,0
21.02.2018 13:00:00 6,0 2,9 - - 16 9 - - NE 1027,2 7 0 0,0
21.02.2018 12:00:00 5,9 3,3 - - 16 9 - - NNE 1027,6 6 0 0,0
21.02.2018 11:00:00 5,7 3,6 - - 16 9 - - NNE 1027,7 4,7 12 0,0
21.02.2018 10:00:00 4,2 3,0 - - 15 8 - - NNE 1027,7 3,2 0 0,2
21.02.2018 09:00:00 2,5 2,4 6,2 7,0 13 7 - - N 1027,5 2,3 6 0,0
21.02.2018 08:00:00 0,7 0,6 - - 13 7 - - N 1027,1 1,6 0 0,0
21.02.2018 07:00:00 -0,4 -0,6 - - 9 5 - - N 1027,0 1,1 0 0,0
21.02.2018 06:00:00 -0,1 -0,3 - - 11 6 - - N 1027,0 1,2 0 0,0
21.02.2018 05:00:00 0,3 0,1 - - 11 6 - - N 1027,0 1,5 0 0,0
21.02.2018 04:00:00 0,8 0,5 - - 13 7 - - N 1026,8 1,9 0 0,0
21.02.2018 03:00:00 1,1 0,7 - - 13 7 - - N 1026,7 2,2 0 0,0
21.02.2018 02:00:00 1,4 0,8 - - 13 7 - - N 1026,3 2,6 0 0,0
21.02.2018 01:00:00 2,2 1,3 - - 15 8 - - N 1025,8 3,8 0 0,0
21.02.2018 00:00:00 3,6 2,4 - - 15 8 - - NNE 1025,3 5 - 0,0
20.02.2018 23:00:00 4,1 2,7 - - 18 10 - - NE 1025,0 6 0 0,0
20.02.2018 22:00:00 4,6 3,3 - - 21 11 - - NE 1024,4 5 0 0,0
20.02.2018 21:00:00 5,1 4,1 - - 22 12 - - ENE 1023,4 9 0 0,0
20.02.2018 20:00:00 5,3 4,6 - - 18 10 - - NNE 1022,3 13 0 0,0
20.02.2018 19:00:00 6,0 5,6 - - 18 10 - - N 1021,2 14 0 0,0
20.02.2018 18:00:00 6,0 5,5 - - 24 13 46 25 N 1020,2 4,6 0 0,2
20.02.2018 17:00:00 6,5 4,8 - - 34 18 48 26 NNW 1019,7 17 0 0,0
20.02.2018 16:00:00 6,9 4,7 - - 31 17 - - N 1019,8 35 0 0,0
20.02.2018 15:00:00 8,1 5,0 - - 28 15 54 29 N 1019,5 50 18 0,0
20.02.2018 14:00:00 8,2 4,4 - - 37 20 55 30 N 1019,5 45 12 0,0
20.02.2018 13:00:00 8,0 5,3 - - 39 21 55 30 N 1019,1 35 24 0,0
20.02.2018 12:00:00 7,5 6,9 - - 29 16 - - N 1019,3 45 0 0,2
20.02.2018 11:00:00 6,4 6,4 - - 4 2 - - NW 1019,1 2,0 0 0,2
20.02.2018 10:00:00 6,1 6,1 - - 2 1 - - SE 1018,8 2,6 0 0,4
20.02.2018 09:00:00 5,9 5,9 6,2 7,0 2 1 - - ENE 1018,7 2,2 0 0,2
20.02.2018 08:00:00 5,6 5,6 - - 4 2 - - NNE 1018,5 1,2 0 0,2
20.02.2018 07:00:00 5,6 5,6 - - 4 2 - - NE 1018,2 1,1 0 0,2
20.02.2018 06:00:00 5,6 5,6 - - 5 3 - - NE 1018,0 1,2 0 0,2
20.02.2018 05:00:00 5,8 5,8 - - 5 3 - - NE 1017,8 1,2 0 0,2
20.02.2018 04:00:00 6,0 6,0 - - 11 6 - - ENE 1017,2 1,6 0 0,0
20.02.2018 03:00:00 6,3 6,3 - - 5 3 - - NE 1017,3 1,5 0 0,0
20.02.2018 02:00:00 6,3 6,3 - - 8 4 - - E 1017,0 1,7 0 0,0
20.02.2018 01:00:00 6,9 6,8 - - 11 6 - - NE 1016,8 1,3 0 0,2
20.02.2018 00:00:00 7,4 7,4 - - 9 5 - - NNE 1016,7 1,3 - 0,2
19.02.2018 23:00:00 7,7 7,6 - - 8 4 - - NNE 1016,0 1,5 0 0,0
19.02.2018 22:00:00 8,0 8,0 - - 11 6 - - NNE 1016,0 3,4 0 0,2
19.02.2018 21:00:00 8,3 8,2 - - 13 7 - - N 1015,7 4,7 0 0,2
19.02.2018 20:00:00 8,5 8,5 - - 11 6 - - N 1015,9 1,9 0 0,0
19.02.2018 19:00:00 8,8 8,7 - - 11 6 - - N 1015,5 1,9 0 0,2
19.02.2018 18:00:00 9,4 9,3 - - 11 6 - - NNW 1015,2 1,7 0 0,2
19.02.2018 17:00:00 9,5 9,4 - - 8 4 - - NW 1014,9 1,9 0 0,2
19.02.2018 16:00:00 9,7 9,5 - - 8 4 - - NW 1014,9 3,2 0 0,0
19.02.2018 15:00:00 9,3 9,1 - - 9 5 - - NW 1014,9 2,5 0 0,2
19.02.2018 14:00:00 8,9 8,7 - - 5 3 - - W 1015,3 4,2 0 0,2
19.02.2018 13:00:00 8,3 8,1 - - 15 8 - - WSW 1015,5 4,7 0 0,2
19.02.2018 12:00:00 8,0 7,9 - - 11 6 - - WSW 1016,1 4,5 0 0,4
19.02.2018 11:00:00 7,6 7,5 - - 11 6 - - WSW 1016,6 3,1 0 0,4
19.02.2018 10:00:00 7,2 7,2 - - 11 6 - - SW 1016,7 2,2 0 0,2
19.02.2018 09:00:00 6,7 6,6 5,5 6,9 9 5 - - SSW 1017,0 3,5 0 0,2
19.02.2018 08:00:00 6,2 6,1 - - 8 4 - - SSW 1017,5 2,5 0 0,2
19.02.2018 07:00:00 6,2 6,1 - - 8 4 - - SSW 1017,5 2,5 0 0,0
19.02.2018 06:00:00 6,3 6,1 - - 8 4 - - SSW 1017,5 1,9 0 0,2
19.02.2018 05:00:00 6,5 6,2 - - 5 3 - - SW 1017,6 3,2 0 0,0
19.02.2018 04:00:00 6,6 6,3 - - 8 4 - - SW 1018,0 4,0 0 0,0
19.02.2018 03:00:00 6,2 5,8 - - 9 5 - - SSW 1018,4 4,5 0 0,0
19.02.2018 02:00:00 6,2 5,5 - - 9 5 - - S 1018,9 5 0 0,0
19.02.2018 01:00:00 6,0 5,1 - - 8 4 - - S 1019,4 6 0 0,0
19.02.2018 00:00:00 5,7 4,6 - - 5 3 - - S 1019,8 7 - 0,0
18.02.2018 23:00:00 5,6 4,3 - - 5 3 - - SSE 1020,2 8 0 0,0
18.02.2018 22:00:00 5,5 4,2 - - 5 3 - - SSW 1020,5 10 0 0,0
18.02.2018 21:00:00 5,5 4,1 - - 8 4 - - SSW 1020,9 10 0 0,0
18.02.2018 20:00:00 4,9 3,6 - - 5 3 - - S 1021,2 10 0 0,0
18.02.2018 19:00:00 5,6 4,1 - - 9 5 - - S 1021,5 10 0 0,0
18.02.2018 18:00:00 6,5 4,7 - - 15 8 - - S 1021,7 15 0 0,0
18.02.2018 17:00:00 7,0 4,8 - - 13 7 - - S 1021,6 23 0 0,0
18.02.2018 16:00:00 7,8 4,4 - - 11 6 - - SSE 1021,8 18 48 0,0
18.02.2018 15:00:00 8,2 4,0 - - 15 8 - - SSE 1021,8 30 24 0,0
18.02.2018 14:00:00 8,9 4,5 - - 15 8 - - SE 1021,8 24 60 0,0
18.02.2018 13:00:00 8,3 4,6 - - 15 8 - - SE 1022,4 35 60 0,0
18.02.2018 12:00:00 7,7 4,6 - - 15 8 - - ESE 1022,7 18 60 0,0
18.02.2018 11:00:00 7,3 5,2 - - 13 7 - - SE 1022,9 17 60 0,0
18.02.2018 10:00:00 6,2 4,6 - - 13 7 - - SSE 1023,1 12 60 0,0
18.02.2018 09:00:00 5,1 4,0 5,0 6,9 11 6 - - SSE 1023,3 15 48 0,0
18.02.2018 08:00:00 3,3 2,7 - - 5 3 - - SSW 1023,5 14 12 0,0
18.02.2018 07:00:00 3,7 3,2 - - 11 6 - - S 1023,3 15 0 0,0
18.02.2018 06:00:00 3,2 2,7 - - 9 5 - - S 1023,1 13 0 0,0
18.02.2018 05:00:00 3,8 3,2 - - 8 4 - - S 1023,3 19 0 0,0
18.02.2018 04:00:00 3,6 3,2 - - 13 7 - - S 1023,2 15 0 0,0
18.02.2018 03:00:00 2,8 1,9 - - 15 8 - - SSW 1023,7 14 0 0,0
18.02.2018 02:00:00 3,9 2,9 - - 13 7 - - S 1024,0 16 0 0,0
18.02.2018 01:00:00 3,1 2,8 - - 11 6 - - S 1023,8 14 0 0,0
18.02.2018 00:00:00 1,9 1,2 - - 9 5 - - S 1024,0 12 - 0,0
17.02.2018 23:00:00 1,9 0,6 - - 5 3 - - SSW 1024,1 12 0 0,0
17.02.2018 22:00:00 3,7 1,4 - - 9 5 - - WSW 1023,9 19 0 0,0
17.02.2018 21:00:00 3,2 1,4 - - 11 6 - - SW 1023,8 19 0 0,0
17.02.2018 20:00:00 3,3 1,0 - - 11 6 - - SSW 1023,5 23 0 0,0
17.02.2018 19:00:00 4,9 2,2 - - 15 8 - - S 1023,4 28 0 0,0
17.02.2018 18:00:00 4,3 2,6 - - 13 7 - - ESE 1023,2 29 0 0,0
17.02.2018 17:00:00 5,4 3,2 - - 9 5 - - ESE 1022,6 18 54 0,0
17.02.2018 16:00:00 7,0 2,4 - - 9 5 - - ESE 1022,7 26 60 0,0
17.02.2018 15:00:00 7,7 0,4 - - 9 5 - - ESE 1022,5 25 60 0,0
17.02.2018 14:00:00 8,1 0,9 - - 9 5 - - SE 1022,6 30 60 0,0
17.02.2018 13:00:00 8,1 1,9 - - 9 5 - - SSE 1022,8 21 60 0,0
17.02.2018 12:00:00 7,9 2,0 - - 8 4 - - SSE 1023,1 19 60 0,0
17.02.2018 11:00:00 7,6 2,9 - - 5 3 - - ESE 1022,9 14 60 0,0
17.02.2018 10:00:00 4,6 4,6 - - 2 1 - - NNW 1022,4 6 48 0,2
17.02.2018 09:00:00 1,5 1,5 5,0 6,9 4 2 - - NNW 1022,2 0,8 30 0,0
17.02.2018 08:00:00 -1,1 -1,1 - - 5 3 - - N 1022,1 0,2 0 0,0
17.02.2018 07:00:00 -0,3 -0,5 - - 8 4 - - NNW 1021,8 0,2 0 0,0
17.02.2018 06:00:00 0,6 0,4 - - 4 2 - - NNW 1021,8 1,9 0 0,0
17.02.2018 05:00:00 0,6 0,4 - - 4 2 - - NNE 1021,7 4,2 0 0,0
17.02.2018 04:00:00 2,1 2,0 - - 5 3 - - SSE 1021,7 9 0 0,0
17.02.2018 03:00:00 1,6 1,3 - - 4 2 - - ESE 1022,2 5 0 0,0
17.02.2018 02:00:00 2,3 1,8 - - 2 1 - - NNE 1022,8 5 0 0,0
17.02.2018 01:00:00 4,2 3,7 - - 9 5 - - SE 1022,9 11 0 0,0
17.02.2018 00:00:00 3,3 2,9 - - 9 5 - - SE 1023,4 11 - 0,0
16.02.2018 23:00:00 2,2 1,6 - - 4 2 - - SE 1023,8 7 0 0,0
16.02.2018 22:00:00 2,9 2,2 - - 8 4 - - SSE 1023,9 10 0 0,0
16.02.2018 21:00:00 3,4 2,1 - - 9 5 - - SSW 1024,1 15 0 0,0
16.02.2018 20:00:00 3,8 2,2 - - 15 8 - - SSW 1024,3 21 0 0,0
16.02.2018 19:00:00 4,5 1,9 - - 13 7 - - S 1025,0 18 0 0,0
16.02.2018 18:00:00 5,0 1,8 - - 15 8 - - SE 1025,0 30 0 0,0
16.02.2018 17:00:00 5,4 2,6 - - 13 7 - - SE 1025,1 25 0 0,0
16.02.2018 16:00:00 6,9 2,6 - - 13 7 - - SE 1024,9 29 54 0,0
16.02.2018 15:00:00 7,9 2,1 - - 13 7 - - SE 1025,2 29 60 0,0
16.02.2018 14:00:00 8,5 1,7 - - 11 6 - - SW 1025,6 20 60 0,0
16.02.2018 13:00:00 9,1 1,5 - - 16 9 - - SW 1026,0 23 60 0,0
16.02.2018 12:00:00 8,1 2,1 - - 13 7 - - WSW 1026,2 27 60 0,0
16.02.2018 11:00:00 6,6 2,6 - - 16 9 - - WSW 1026,3 16 60 0,0
16.02.2018 10:00:00 5,2 1,9 - - 15 8 - - W 1025,9 13 60 0,0
16.02.2018 09:00:00 3,5 1,6 5,2 6,9 15 8 - - WSW 1025,7 17 60 0,0
16.02.2018 08:00:00 2,5 1,0 - - 15 8 - - WSW 1025,0 17 18 0,0
16.02.2018 07:00:00 2,3 0,8 - - 11 6 - - WSW 1024,1 16 0 0,0
16.02.2018 06:00:00 2,6 0,7 - - 11 6 - - WSW 1023,5 20 0 0,0
16.02.2018 05:00:00 3,0 0,8 - - 16 9 - - W 1023,2 21 0 0,0
16.02.2018 04:00:00 3,0 0,6 - - 16 9 - - W 1022,4 21 0 0,0
16.02.2018 03:00:00 3,4 0,5 - - 18 10 - - W 1021,7 26 0 0,0
16.02.2018 02:00:00 3,7 0,3 - - 18 10 - - W 1021,1 24 0 0,0
16.02.2018 01:00:00 3,9 0,3 - - 16 9 - - W 1020,4 23 0 0,0
16.02.2018 00:00:00 3,6 0,4 - - 13 7 - - WSW 1019,8 17 - 0,0
15.02.2018 23:00:00 3,9 0,2 - - 13 7 - - WSW 1019,3 18 0 0,0
15.02.2018 22:00:00 4,3 0,4 - - 15 8 - - WSW 1018,5 23 0 0,0
15.02.2018 21:00:00 4,6 0,5 - - 13 7 - - WSW 1017,6 18 0 0,0
15.02.2018 20:00:00 5,1 0,8 - - 13 7 - - WSW 1016,9 19 0 0,0
15.02.2018 19:00:00 6,2 0,9 - - 16 9 - - WSW 1016,1 22 0 0,0

tt = temperature
td = dewpoint
tt -20cm = temperature -20cm
tt -100cm = temperature -100cm
ff = wind speed
fx = gusts
dd = wind direction
ppp = reduced air pressure
vv = visibility
sd = sunshine duration
rr = precipitation

Next stations